| time (UTC) | temp C | wind direction | speed KPH | gust KPH | rain 1hr cm | rain 24hr cm | rain mn cm | humidity % | barometer mb |
| 20260506134543 | 26 | 0.0 | 0.0 | 0.00 | 0.00 | 0.00 | 37 | 1002.4 | |
| 20260506133046 | 25 | 0.0 | 0.0 | 0.00 | 0.00 | 0.00 | 37 | 1002.5 | |
| 20260506131539 | 25 | 0.0 | 0.0 | 0.00 | 0.00 | 0.00 | 37 | 1002.9 | |
| 20260506130039 | 25 | 0.0 | 0.0 | 0.00 | 0.00 | 0.00 | 38 | 1003.1 | |
| 20260506124533 | 24 | 0.0 | 0.0 | 0.00 | 0.00 | 0.00 | 38 | 1003.3 | |
| 20260506123032 | 24 | 0.0 | 0.0 | 0.00 | 0.00 | 0.00 | 39 | 1003.4 | |
| 20260506121531 | 23 | 0.0 | 0.0 | 0.00 | 0.00 | 0.00 | 38 | 1003.7 | |
| 20260506120034 | 23 | 0.0 | 0.0 | 0.00 | 0.00 | 0.00 | 39 | 1003.7 | |
| 20260506114529 | 23 | 0.0 | 0.0 | 0.00 | 0.00 | 0.00 | 43 | 1003.8 | |
| 20260506113029 | 23 | 0.0 | 0.0 | 0.00 | 0.00 | 0.00 | 43 | 1004.2 | |
| 20260506111530 | 23 | 0.0 | 0.0 | 0.00 | 0.00 | 0.00 | 43 | 1004.4 | |
| 20260506110027 | 23 | 0.0 | 0.0 | 0.00 | 0.00 | 0.00 | 43 | 1004.7 | |
| 20260506104525 | 23 | 0.0 | 0.0 | 0.00 | 0.00 | 0.00 | 45 | 1004.9 | |
| 20260506103025 | 23 | 0.0 | 0.0 | 0.00 | 0.00 | 0.00 | 44 | 1005.1 | |
| 20260506101525 | 23 | 0.0 | 0.0 | 0.00 | 0.00 | 0.00 | 46 | 1005.4 | |
| 20260506100025 | 23 | 0.0 | 0.0 | 0.00 | 0.00 | 0.00 | 46 | 1005.6 | |
| 20260506094522 | 23 | 0.0 | 0.0 | 0.00 | 0.00 | 0.00 | 45 | 1005.7 | |
| 20260506093021 | 23 | 0.0 | 0.0 | 0.00 | 0.00 | 0.00 | 44 | 1005.8 | |
| 20260506091520 | 22 | 0.0 | 0.0 | 0.00 | 0.00 | 0.00 | 45 | 1005.9 | |
| 20260506090023 | 22 | 0.0 | 0.0 | 0.00 | 0.00 | 0.00 | 45 | 1006.0 | |
| 20260506084521 | 22 | 0.0 | 0.0 | 0.00 | 0.00 | 0.00 | 49 | 1006.0 | |
| 20260506083019 | 21 | 0.0 | 0.0 | 0.00 | 0.00 | 0.00 | 49 | 1006.0 | |
| 20260506081510 | 20 | 0.0 | 0.0 | 0.00 | 0.00 | 0.00 | 52 | 1006.2 | |
| 20260506073006 | 20 | 0.0 | 0.0 | 0.00 | 0.00 | 0.00 | 55 | 1006.3 | |
| 20260506071503 | 19 | 0.0 | 0.0 | 0.00 | 0.00 | 0.00 | 56 | 1006.4 | |
| 20260506061553 | 17 | 0.0 | 0.0 | 0.00 | 0.00 | 0.00 | 60 | 1006.7 | |
| 20260506050104 | 16 | 0.0 | 0.0 | 0.00 | 0.00 | 0.00 | 67 | 1006.8 | |
| 20260506044547 | 16 | 0.0 | 0.0 | 0.00 | 0.00 | 0.00 | 69 | 1006.6 | |
| 20260506043045 | 15 | 0.0 | 0.0 | 0.00 | 0.00 | 0.00 | 70 | 1006.5 | |
| 20260506041557 | 15 | 0.0 | 0.0 | 0.00 | 0.00 | 0.00 | 71 | 1006.4 | |
| 20260506040043 | 15 | 0.0 | 0.0 | 0.00 | 0.00 | 0.00 | 72 | 1006.3 | |
| 20260506034550 | 15 | 0.0 | 0.0 | 0.00 | 0.00 | 0.00 | 71 | 1006.2 | |
| 20260506033041 | 15 | 0.0 | 0.0 | 0.00 | 0.00 | 0.00 | 71 | 1006.2 | |
| 20260506031541 | 16 | 0.0 | 0.0 | 0.00 | 0.00 | 0.00 | 70 | 1006.1 | |
| 20260506030041 | 16 | 0.0 | 0.0 | 0.00 | 0.00 | 0.00 | 70 | 1006.1 | |
| 20260506024539 | 16 | 0.0 | 0.0 | 0.00 | 0.00 | 0.00 | 70 | 1006.2 | |
| 20260506023039 | 16 | 0.0 | 0.0 | 0.00 | 0.00 | 0.00 | 69 | 1006.1 | |
| 20260506021538 | 16 | 0.0 | 0.0 | 0.00 | 0.00 | 0.00 | 68 | 1006.0 | |
| 20260506020040 | 16 | 0.0 | 0.0 | 0.00 | 0.00 | 0.00 | 68 | 1005.8 | |
| 20260506014535 | 17 | 0.0 | 0.0 | 0.00 | 0.00 | 0.00 | 67 | 1005.7 | |
| 20260506013048 | 17 | 0.0 | 0.0 | 0.00 | 0.00 | 0.00 | 66 | 1005.6 | |
| 20260506011541 | 17 | 0.0 | 0.0 | 0.00 | 0.00 | 0.00 | 65 | 1005.6 | |
| 20260506010035 | 17 | 0.0 | 0.0 | 0.00 | 0.00 | 0.00 | 65 | 1005.4 | |
| 20260506004529 | 17 | 0.0 | 0.0 | 0.00 | 0.00 | 0.00 | 66 | 1005.2 | |
| 20260506003027 | 15 | 0.0 | 0.0 | 0.00 | 0.00 | 0.00 | 71 | 1005.1 | |
| 20260506001524 | 15 | 0.0 | 0.0 | 0.00 | 0.00 | 0.00 | 71 | 1004.9 | |
| 20260506000023 | 14 | 0.0 | 0.0 | 0.00 | 0.00 | 0.00 | 73 | 1004.8 | |
| 20260505234522 | 14 | 0.0 | 0.0 | 0.00 | 0.00 | 0.00 | 71 | 1004.8 | |
| 20260505233026 | 14 | 0.0 | 0.0 | 0.00 | 0.00 | 0.00 | 71 | 1004.5 | |
| 20260505231519 | 14 | 0.0 | 0.0 | 0.00 | 0.00 | 0.00 | 72 | 1004.5 | |
| 20260505230017 | 13 | 0.0 | 0.0 | 0.00 | 0.00 | 0.00 | 72 | 1004.4 | |
| 20260505224515 | 13 | 0.0 | 0.0 | 0.00 | 0.00 | 0.00 | 71 | 1004.1 | |
| 20260505223011 | 14 | 0.0 | 0.0 | 0.00 | 0.00 | 0.00 | 69 | 1004.0 | |
| 20260505221509 | 15 | 0.0 | 0.0 | 0.00 | 0.00 | 0.00 | 67 | 1003.8 | |
| 20260505220013 | 15 | 0.0 | 0.0 | 0.00 | 0.00 | 0.00 | 66 | 1003.6 | |
| 20260505214503 | 15 | 0.0 | 0.0 | 0.00 | 0.00 | 0.00 | 64 | 1003.5 | |
| 20260505213002 | 16 | 0.0 | 0.0 | 0.00 | 0.00 | 0.00 | 62 | 1003.4 | |
| 20260505211502 | 16 | 0.0 | 0.0 | 0.00 | 0.00 | 0.00 | 60 | 1003.4 | |
| 20260505210002 | 17 | 0.0 | 0.0 | 0.00 | 0.00 | 0.00 | 57 | 1003.2 | |
| 20260505204605 | 17 | 0.0 | 0.0 | 0.00 | 0.00 | 0.00 | 55 | 1003.0 | |
| 20260505203108 | 18 | 0.0 | 0.0 | 0.00 | 0.00 | 0.00 | 54 | 1002.6 | |
| 20260505201559 | 18 | 0.0 | 0.0 | 0.00 | 0.00 | 0.00 | 53 | 1002.4 | |
| 20260505200110 | 18 | 0.0 | 0.0 | 0.00 | 0.00 | 0.00 | 53 | 1002.3 | |
| 20260505194558 | 18 | 0.0 | 0.0 | 0.00 | 0.00 | 0.00 | 52 | 1002.4 | |
| 20260505193104 | 18 | 0.0 | 0.0 | 0.00 | 0.00 | 0.00 | 52 | 1002.2 | |
| 20260505191608 | 18 | 0.0 | 0.0 | 0.00 | 0.00 | 0.00 | 51 | 1002.2 | |
| 20260505190057 | 19 | 0.0 | 0.0 | 0.00 | 0.00 | 0.00 | 51 | 1002.3 | |
| 20260505184558 | 19 | 0.0 | 0.0 | 0.00 | 0.00 | 0.00 | 50 | 1002.3 | |
| 20260505183056 | 19 | 0.0 | 0.0 | 0.00 | 0.00 | 0.00 | 49 | 1002.1 | |
| 20260505181558 | 20 | 0.0 | 0.0 | 0.00 | 0.00 | 0.00 | 48 | 1002.1 | |
| 20260505180054 | 20 | 0.0 | 0.0 | 0.00 | 0.00 | 0.00 | 47 | 1002.2 | |
| 20260505174602 | 20 | 0.0 | 0.0 | 0.00 | 0.00 | 0.00 | 45 | 1002.1 | |
| 20260505173056 | 21 | 0.0 | 0.0 | 0.00 | 0.00 | 0.00 | 44 | 1002.2 | |
| 20260505171553 | 22 | 0.0 | 0.0 | 0.00 | 0.00 | 0.00 | 43 | 1002.2 | |
| 20260505170052 | 22 | 0.0 | 0.0 | 0.00 | 0.00 | 0.00 | 41 | 1002.2 | |
| 20260505164551 | 23 | 0.0 | 0.0 | 0.00 | 0.00 | 0.00 | 41 | 1002.3 | |
| 20260505163053 | 22 | 0.0 | 0.0 | 0.00 | 0.00 | 0.00 | 41 | 1002.4 | |
| 20260505161550 | 22 | 0.0 | 0.0 | 0.00 | 0.00 | 0.00 | 41 | 1002.4 | |
| 20260505153048 | 23 | 0.0 | 0.0 | 0.00 | 0.00 | 0.00 | 38 | 1002.6 | |
| 20260505151548 | 25 | 0.0 | 0.0 | 0.00 | 0.00 | 0.00 | 37 | 1002.6 |